Time,TemperatureF,DewpointF,PressureIn,WindDirection,WindDirectionDegrees,WindSpeedMPH,WindSpeedGustMPH,Humidity,HourlyPrecipIn,Conditions,Clouds,dailyrainin,SoftwareType,DateUTC
2013-12-08 00:44:00,32.0,-99.9,30.52,NW,318,-999.0,5.0,-999,0.00,,,-99.99,,2013-12-08 05:44:00,
2013-12-08 00:52:00,31.0,-99.9,30.51,WNW,286,4.0,6.0,-999,-99.99,,,-99.99,,2013-12-08 05:52:00,
2013-12-08 01:42:00,31.0,-99.9,30.51,WNW,286,4.0,6.0,-999,-99.99,,,-99.99,,2013-12-08 06:42:00,
2013-12-08 01:52:00,30.0,-99.9,30.53,WNW,288,10.0,10.0,-999,0.00,,,-99.99,,2013-12-08 06:52:00,
2013-12-08 02:42:00,30.0,-99.9,30.53,WNW,288,10.0,10.0,-999,0.00,,,-99.99,,2013-12-08 07:42:00,
2013-12-08 02:52:00,30.0,-99.9,30.55,NW,311,7.0,13.0,-999,0.00,,,-99.99,,2013-12-08 07:52:00,
2013-12-08 03:43:00,30.0,-99.9,30.55,NW,311,7.0,13.0,-999,0.00,,,-99.99,,2013-12-08 08:43:00,
2013-12-08 03:52:00,29.0,-99.9,30.56,WNW,302,8.0,12.0,-999,0.00,,,-99.99,,2013-12-08 08:52:00,
2013-12-08 04:43:00,29.0,-99.9,30.56,WNW,302,8.0,12.0,-999,0.00,,,-99.99,,2013-12-08 09:43:00,
2013-12-08 04:52:00,28.0,-99.9,30.55,WNW,285,4.0,7.0,-999,0.00,,,-99.99,,2013-12-08 09:52:00,
2013-12-08 05:43:00,28.0,-99.9,30.55,WNW,285,4.0,7.0,-999,0.00,,,-99.99,,2013-12-08 10:43:00,
2013-12-08 05:52:00,29.0,-99.9,30.56,WNW,299,6.0,6.0,-999,0.00,,,-99.99,,2013-12-08 10:52:00,
2013-12-08 06:43:00,29.0,-99.9,30.56,WNW,299,6.0,6.0,-999,0.00,,,-99.99,,2013-12-08 11:43:00,
2013-12-08 06:52:00,29.0,-99.9,30.57,NW,316,6.0,10.0,-999,0.00,,,-99.99,,2013-12-08 11:52:00,
2013-12-08 07:42:00,29.0,-99.9,30.57,NW,316,6.0,10.0,-999,0.00,,,-99.99,,2013-12-08 12:42:00,
2013-12-08 07:52:00,30.0,-99.9,30.58,NW,316,7.0,9.0,-999,0.00,,,-99.99,,2013-12-08 12:52:00,
2013-12-08 08:42:00,30.0,-99.9,30.58,NW,316,7.0,9.0,-999,0.00,,,-99.99,,2013-12-08 13:42:00,
2013-12-08 08:52:00,30.0,-99.9,30.58,NW,305,-999.0,5.0,-999,0.00,,,-99.99,,2013-12-08 13:52:00,
2013-12-08 09:42:00,30.0,-99.9,30.58,NW,305,-999.0,5.0,-999,0.00,,,-99.99,,2013-12-08 14:42:00,
2013-12-08 09:52:00,34.0,-99.9,30.57,NNW,331,9.0,18.0,-999,0.00,,,-99.99,,2013-12-08 14:52:00,
2013-12-08 10:43:00,34.0,-99.9,30.57,NNW,331,9.0,18.0,-999,0.00,,,-99.99,,2013-12-08 15:43:00,
2013-12-08 10:52:00,34.0,-99.9,30.57,NNW,331,-999.0,9.0,-999,0.00,,,-99.99,,2013-12-08 15:52:00,
2013-12-08 11:43:00,34.0,-99.9,30.57,NNW,331,-999.0,9.0,-999,0.00,,,-99.99,,2013-12-08 16:43:00,
2013-12-08 11:52:00,34.0,-99.9,30.56,NNE,14,9.0,12.0,-999,0.00,,,-99.99,,2013-12-08 16:52:00,
2013-12-08 12:43:00,34.0,-99.9,30.56,NNE,14,9.0,12.0,-999,0.00,,,-99.99,,2013-12-08 17:43:00,
2013-12-08 12:52:00,31.0,-99.9,30.54,NW,323,-999.0,6.0,-999,0.00,,,-99.99,,2013-12-08 17:52:00,
2013-12-08 13:42:00,31.0,-99.9,30.54,NW,323,-999.0,6.0,-999,0.00,,,-99.99,,2013-12-08 18:42:00,
2013-12-08 14:52:00,32.0,-99.9,30.52,NW,313,-999.0,-999.0,-999,0.00,,,-99.99,,2013-12-08 19:52:00,
2013-12-08 15:42:00,32.0,-99.9,30.52,NW,313,-999.0,-999.0,-999,0.00,,,-99.99,,2013-12-08 20:42:00,
2013-12-08 15:52:00,33.0,-99.9,30.52,NW,313,-999.0,-999.0,-999,0.00,,,-99.99,,2013-12-08 20:52:00,
2013-12-08 16:43:00,33.0,-99.9,30.52,NW,313,-999.0,-999.0,-999,0.00,,,-99.99,,2013-12-08 21:43:00,
2013-12-08 16:52:00,33.0,-99.9,30.50,NW,313,-999.0,-999.0,-999,0.00,,,-99.99,,2013-12-08 21:52:00,
2013-12-08 17:43:00,33.0,-99.9,30.50,NW,313,-999.0,-999.0,-999,0.00,,,-99.99,,2013-12-08 22:43:00,
2013-12-08 17:52:00,33.0,-99.9,30.51,NW,313,-999.0,-999.0,-999,0.00,,,-99.99,,2013-12-08 22:52:00,
2013-12-08 18:42:00,33.0,-99.9,30.51,NW,313,-999.0,-999.0,-999,0.00,,,-99.99,,2013-12-08 23:42:00,
2013-12-08 18:52:00,33.0,-99.9,30.49,NNW,336,-999.0,9.0,-999,0.00,,,-99.99,,2013-12-08 23:52:00,
2013-12-08 19:42:00,33.0,-99.9,30.49,NNW,336,-999.0,9.0,-999,0.00,,,-99.99,,2013-12-09 00:42:00,
2013-12-08 19:52:00,34.0,-99.9,30.48,NE,39,12.0,12.0,-999,0.00,,,-99.99,,2013-12-09 00:52:00,
2013-12-08 20:42:00,34.0,-99.9,30.48,NE,39,12.0,12.0,-999,0.00,,,-99.99,,2013-12-09 01:42:00,
2013-12-08 20:52:00,35.0,-99.9,30.45,NNE,29,11.0,17.0,-999,0.00,,,-99.99,,2013-12-09 01:52:00,
2013-12-08 21:42:00,35.0,-99.9,30.45,NNE,29,11.0,17.0,-999,0.00,,,-99.99,,2013-12-09 02:42:00,
2013-12-08 21:52:00,37.0,-99.9,30.40,ENE,66,11.0,19.0,-999,0.00,,,-99.99,,2013-12-09 02:52:00,
2013-12-08 22:43:00,37.0,-99.9,30.40,ENE,66,11.0,19.0,-999,0.00,,,-99.99,,2013-12-09 03:43:00,
2013-12-08 23:52:00,40.0,-99.9,30.35,SE,137,10.0,18.0,-999,0.24,,,-99.99,,2013-12-09 04:52:00,